Darstellungsparameter: Aktuell verwendete Einstellungen:
Skalierung der Graphiken ... ?
xyx+y,   Skalierungsfaktor:      Skalierung: Modus: x, Faktor: 1
Darstellungszeitraum ... ?
Vom - - bis: - -   Zeitraum: 16.10.2019 - 15.01.2020
Min/Max/Avg-Anzeige ... ?
Zeige MMA aktuell
Zeige MMA Monat
Zeige MMA alles
Zeige --A aktuell
Zeige --A Monat
Zeige --A alles
Keine MMA-Anzeige
MMA:
Average (ber die Originaldaten)
MMA-Basis: 16.10.2019 - 15.01.2020
Quicknavigation für Darstellung... ?
Tage:      1T, 2T, 3T, 5T -1T -2T -3T -5T +1T +2T +3T +5T
Wochen: 1W, 2W, 3W -1W -2W -3W +1W +2W +3W
Monate: 1M, 3M, 6M -1M -3M -6M +1M +3M +6M
Jahre:    1J, 3J, 5J, 10J -1J -3J -5J -10J +1J +3J +5J +10J
Nutze für die Darstellung ... ?
Originaldaten oder ...
Mittelwerte Minima Maxima auf...
Stundenbasis Tagesbasis Wochenbasis
Monatsbasis Jahresbasis      Datenbasis: Mittelwerte auf Tagesbasis
Darstellen als:
Statistik (Auto) Statistik J:M      Darstellung:
Zur Graphik,    zurück zur Übersicht aller Sensoren.
 
Tabellarische Datenbersicht: ?
 
Sensor: Nr:Datum:Temp:Abs-Feuchte:Windchill:Wind:
Aussen-T/F 1 16-10-2019 00:00:00 12.65347 C 10.45 g/m*3 12.65 C 2.06354 km/h
2 17-10-2019 00:00:00 14.64826 C 11.42 g/m*3 14.65 C 2.20521 km/h
3 18-10-2019 00:00:00 12.52604 C 10.1 g/m*3 12.53 C 3.73403 km/h
4 19-10-2019 00:00:00 12.88561 C 10.24 g/m*3 12.89 C 1.25396 km/h
5 20-10-2019 00:00:00 13.60139 C 11.48 g/m*3 13.6 C 0.10592 km/h
6 21-10-2019 00:00:00 13.67735 C 11.06 g/m*3 13.68 C 1.77735 km/h
7 22-10-2019 00:00:00 11.49819 C 9.49 g/m*3 11.5 C 0.65884 km/h
8 23-10-2019 00:00:00 11.05972 C 9.52 g/m*3 11.06 C 1.19514 km/h
9 24-10-2019 00:00:00 14.06458 C 11.16 g/m*3 14.06 C 0.74618 km/h
10 25-10-2019 00:00:00 13.32951 C 10.11 g/m*3 13.33 C 3.23785 km/h
11 26-10-2019 00:00:00 13.17604 C 10.48 g/m*3 13.18 C 0.73993 km/h
12 27-10-2019 00:00:00 10.25174 C 8.89 g/m*3 10.25 C 2.11736 km/h
13 28-10-2019 00:00:00 6.33854 C 7.18 g/m*3 6.34 C 0.77847 km/h
14 29-10-2019 00:00:00 6.56632 C 6.94 g/m*3 6.57 C 1.2191 km/h
15 30-10-2019 00:00:00 3.52778 C 5.79 g/m*3 3.53 C 0.38368 km/h
16 31-10-2019 00:00:00 2.23438 C 5.28 g/m*3 2.23 C 0.67396 km/h
17 01-11-2019 00:00:00 6.02465 C 6.99 g/m*3 6.02 C 0.48958 km/h
18 02-11-2019 00:00:00 13.19792 C 10.36 g/m*3 13.2 C 6.07292 km/h
19 03-11-2019 00:00:00 11.85035 C 9.69 g/m*3 11.85 C 1.69514 km/h
20 04-11-2019 00:00:00 10.33333 C 8.92 g/m*3 10.33 C 3.08403 km/h
21 05-11-2019 00:00:00 9.70972 C 8.25 g/m*3 9.71 C 2.63854 km/h
22 06-11-2019 00:00:00 8.97569 C 8.38 g/m*3 8.98 C 1.65278 km/h
23 07-11-2019 00:00:00 7.93611 C 7.85 g/m*3 7.94 C 1.98715 km/h
24 08-11-2019 00:00:00 4.99444 C 6.56 g/m*3 4.99 C 0.32778 km/h
25 09-11-2019 00:00:00 4.99167 C 6.39 g/m*3 4.99 C 3.73299 km/h
Sensor: Nr:Datum:Temp:Abs-Feuchte:Windchill:Wind:
Aussen-T/F 26 10-11-2019 00:00:00 3.02188 C 5.69 g/m*3 3.02 C 1.31146 km/h
27 11-11-2019 00:00:00 4.67986 C 6.09 g/m*3 4.68 C 3.38854 km/h
28 12-11-2019 00:00:00 5.9125 C 6.37 g/m*3 5.91 C 4.80729 km/h
29 13-11-2019 00:00:00 5.47431 C 6.19 g/m*3 5.47 C 3.37118 km/h
30 14-11-2019 00:00:00 5.50729 C 6.04 g/m*3 5.51 C 1.95556 km/h
31 15-11-2019 00:00:00 4.68958 C 5.87 g/m*3 4.69 C 1.32639 km/h
32 16-11-2019 00:00:00 2.11389 C 5.35 g/m*3 2.11 C 0.59444 km/h
33 17-11-2019 00:00:00 3.09271 C 5.81 g/m*3 3.09 C 1.22049 km/h
34 18-11-2019 00:00:00 4.31181 C 6.25 g/m*3 4.31 C 4.39097 km/h
35 19-11-2019 00:00:00 3.99132 C 6.02 g/m*3 3.99 C 3.26597 km/h
36 20-11-2019 00:00:00 1.59583 C 5.12 g/m*3 1.6 C 1.20972 km/h
37 21-11-2019 00:00:00 1.90833 C 5.3 g/m*3 1.91 C 0.25556 km/h
38 22-11-2019 00:00:00 4.39097 C 6.22 g/m*3 4.39 C 2.3066 km/h
39 23-11-2019 00:00:00 5.38785 C 6.48 g/m*3 5.39 C 1.74201 km/h
40 24-11-2019 00:00:00 2.90104 C 5.74 g/m*3 2.9 C 0.06111 km/h
41 25-11-2019 00:00:00 4.80833 C 6.51 g/m*3 4.81 C 0.02778 km/h
42 26-11-2019 00:00:00 8.38542 C 8.03 g/m*3 8.39 C 0.9066 km/h
43 27-11-2019 00:00:00 10.34479 C 8.62 g/m*3 9.87 C 5.98819 km/h
44 28-11-2019 00:00:00 10.92778 C 8.33 g/m*3 8.91 C 16.34514 km/h
45 29-11-2019 00:00:00 6.44618 C 6.66 g/m*3 6.45 C 3.50382 km/h
46 30-11-2019 00:00:00 1.19549 C 5.06 g/m*3 1.2 C 0.78889 km/h
47 01-12-2019 00:00:00 1.79271 C 5.07 g/m*3 1.79 C 0.76285 km/h
48 02-12-2019 00:00:00 1.98646 C 5.18 g/m*3 1.99 C 2.41076 km/h
49 03-12-2019 00:00:00 4.75729 C 6.42 g/m*3 4.76 C 2.90799 km/h
50 04-12-2019 00:00:00 1.34375 C 5.12 g/m*3 1.34 C 0.38889 km/h
Sensor: Nr:Datum:Temp:Abs-Feuchte:Windchill:Wind:
Aussen-T/F 51 05-12-2019 00:00:00 -1.15625 C 4.33 g/m*3 -1.16 C 1.07292 km/h
52 06-12-2019 00:00:00 3.41285 C 5.7 g/m*3 1.37 C 7.65486 km/h
53 07-12-2019 00:00:00 8.70903 C 7.68 g/m*3 7.94 C 6.1684 km/h
54 08-12-2019 00:00:00 10.05903 C 8.11 g/m*3 7.98 C 15.03993 km/h
55 09-12-2019 00:00:00 7.72222 C 6.87 g/m*3 5.33 C 13.44757 km/h
56 10-12-2019 00:00:00 3.24757 C 5.5 g/m*3 3.25 C 3.26111 km/h
57 11-12-2019 00:00:00 3.97292 C 6.01 g/m*3 3.97 C 1.18958 km/h
58 12-12-2019 00:00:00 3.52361 C 5.79 g/m*3 3.52 C 2.6559 km/h
59 13-12-2019 00:00:00 4.09722 C 5.89 g/m*3 2.1 C 7.89479 km/h
60 14-12-2019 00:00:00 6.8934 C 6.59 g/m*3 4.55 C 12.00035 km/h
61 15-12-2019 00:00:00 7.90069 C 7.25 g/m*3 6.51 C 8.15799 km/h
62 16-12-2019 00:00:00 8.12951 C 8.07 g/m*3 8.13 C 1.30764 km/h
63 17-12-2019 00:00:00 10.43056 C 8.68 g/m*3 10.43 C 3.06632 km/h
64 18-12-2019 00:00:00 7.77014 C 7.62 g/m*3 7.77 C 2.52222 km/h
65 19-12-2019 00:00:00 5.57986 C 6.77 g/m*3 5.58 C 1.93472 km/h
66 20-12-2019 00:00:00 7.73264 C 7.5 g/m*3 7.01 C 5.51528 km/h
67 21-12-2019 00:00:00 7.24826 C 7.1 g/m*3 7.25 C 2.32604 km/h
68 22-12-2019 00:00:00 8.18368 C 7.45 g/m*3 6.88 C 7.96806 km/h
69 23-12-2019 00:00:00 7.83021 C 7.24 g/m*3 6.73 C 6.89375 km/h
70 24-12-2019 00:00:00 7.67986 C 7.22 g/m*3 6.56 C 6.89132 km/h
71 25-12-2019 00:00:00 7.66389 C 7.34 g/m*3 6.81 C 5.92118 km/h
72 26-12-2019 00:00:00 4.9934 C 6.53 g/m*3 4.99 C 0.22778 km/h
73 27-12-2019 00:00:00 5.12153 C 6.48 g/m*3 5.12 C 0.62813 km/h
74 28-12-2019 00:00:00 -0.27465 C 4.56 g/m*3 -0.27 C 0.24444 km/h
75 29-12-2019 00:00:00 -1.04618 C 4.3 g/m*3 -1.05 C 0.16111 km/h
Sensor: Nr:Datum:Temp:Abs-Feuchte:Windchill:Wind:
Aussen-T/F 76 30-12-2019 00:00:00 -0.88507 C 4.31 g/m*3 -0.89 C 0.57778 km/h
77 31-12-2019 00:00:00 0.52326 C 4.68 g/m*3 0.52 C 0.38889 km/h
78 01-01-2020 00:00:00 0.89583 C 4.89 g/m*3 0.9 C 0.65035 km/h
79 02-01-2020 00:00:00 1.68611 C 5.16 g/m*3 1.69 C 1.07083 km/h
80 03-01-2020 00:00:00 7.56111 C 7.32 g/m*3 5.66 C 10.31771 km/h
81 04-01-2020 00:00:00 5.45936 C 6.25 g/m*3 4.14 C 6.36466 km/h
82 05-01-2020 00:00:00 5.96021 C 6.74 g/m*3 5.96 C 1.99155 km/h
83 06-01-2020 00:00:00 2.98542 C 5.54 g/m*3 2.99 C 0.62257 km/h
84 07-01-2020 00:00:00 5.07812 C 6.3 g/m*3 3.55 C 6.84618 km/h
85 08-01-2020 00:00:00 8.28333 C 7.79 g/m*3 8.28 C 4.43403 km/h
86 09-01-2020 00:00:00 10.92535 C 9.24 g/m*3 10.93 C 4.57049 km/h
87 10-01-2020 00:00:00 8.91667 C 7.74 g/m*3 8.13 C 6.34097 km/h
88 11-01-2020 00:00:00 4.34236 C 5.77 g/m*3 4.34 C 2.90972 km/h
89 12-01-2020 00:00:00 5.14718 C 6.03 g/m*3 2.77 C 10.27923 km/h
90 13-01-2020 00:00:00 6.54201 C 6.9 g/m*3 6.54 C 2.32361 km/h
91 14-01-2020 00:00:00 9.77153 C 7.21 g/m*3 8.94 C 7.10104 km/h
92 15-01-2020 00:00:00 10.89063 C 7.62 g/m*3 10.7 C 5.23785 km/h

Maximal/Minimal-Werte vom 16.10.2019 - 15.01.2020

Sensor Min Max Avg
Temp
(Aussen-T/F)
-3.6 °C
29-12-2019  07:25:00
18.9 °C
24-10-2019  15:40:00
6.52 °C
Abs-Feuchte
(Aussen-T/F)
4.3 g/m*3
29-12-2019  00:00:00
11.48 g/m*3
20-10-2019  00:00:00
7.02 g/m*3
Windchill
(Aussen-T/F)
-1.16 C
05-12-2019  00:00:00
14.65 C
17-10-2019  00:00:00
6.14 C

Die Daten stammen von einer Davis Vantage Pro 2 Wetter-Station und werden unter Linux mit der Software wview2wettercgi und aufbereitet. Alle Angaben erfolgen ohne Gewähr für ihre Vollständigkeit oder Richtigkeit.
Kontakt: Rainer Krienke krienke@uni-koblenz.de . Meine Webseiten an der Uni Koblenz oder privat.
Version: $Revision: 0.78 $